Fort Myers Airport, FL

4:08 PM EST on December 13, 2017 (GMT -0500)
Southwest Florida International

Weather History for KRSW - October, 2011

Change the Weather History Date:

Monday, October 17, 2011

  Actual Average Record
Temperature  
Mean Temperature 73 °F -  
Max Temperature 75 °F 86 °F 92 °F (1989)
Min Temperature 71 °F 67 °F 51 °F (1977)
Cooling Degree Days 8    
Growing Degree Days 23 (Base 50)    
Moisture  
Dew Point 71 °F    
Average Humidity 93    
Maximum Humidity 100    
Minimum Humidity 88    
Precipitation  
Precipitation 0.05 in - - ()
Sea Level Pressure  
Sea Level Pressure 29.91 in    
Wind  
Wind Speed 7 mph (ESE)    
Max Wind Speed 10 mph    
Max Gust Speed -    
Visibility 9 miles    
Events Rain    
Averages and records for this station are not official NWS values.
T = Trace of Precipitation, MM = Missing Value Source: NWS Daily Summary

Daily Weather History Graph

Daily Weather History Graph

Search for Another Location

Airport or City:

Trip Planner

Search our weather history database for the weather conditions in past years. The results will help you decide how hot, cold, wet, or windy it might be!

Date:

Astronomy

Oct. 17, 2011 Rise Set
Actual Time 7:27 AM EDT 6:57 PM EDT
Civil Twilight 7:03 AM EDT 7:20 PM EDT
Nautical Twilight 6:36 AM EDT 7:47 PM EDT
Astronomical Twilight 6:09 AM EDT 8:14 PM EDT
Moon 10:58 PM EDT (10/17) 12:09 PM EDT (10/17)
Length of Visible Light 12h 16m
Length of Day
11h 29m
Waning Gibbous, 74% of the Moon is Illuminated
Oct 17
Waning Gibbous
Oct 19
Last Quarter
Oct 26
New
Nov 2
First Quarter
Nov 10
Full

Hourly Weather History & Observations

Time (EDT) Temp. Dew Point Humidity Pressure Visibility Wind Dir Wind Speed Gust Speed Precip Events Conditions
12:51 AM 73.4 °F 71.6 °F 94% 29.98 in 10.0 mi ESE 8.1 mph - 0.00 in   Partly Cloudy
12:53 AM 73.0 °F 71.1 °F 93% 29.97 in 10.0 mi ESE 9.2 mph - 0.00 in   Partly Cloudy
1:53 AM 73.0 °F 70.0 °F 90% 29.96 in 10.0 mi East 8.1 mph - 0.00 in   Clear
2:53 AM 73.0 °F 70.0 °F 90% 29.94 in 10.0 mi ESE 9.2 mph - 0.00 in Rain Light Rain
3:53 AM 73.4 °F 69.8 °F 88% 29.93 in 10.0 mi East 8.1 mph - N/A   Mostly Cloudy
4:23 AM 73.4 °F 69.8 °F 88% 29.93 in 10.0 mi East 9.2 mph - N/A   Mostly Cloudy
4:51 AM 71.6 °F 69.8 °F 94% 29.94 in 10.0 mi ESE 8.1 mph - N/A   Scattered Clouds
4:53 AM 72.0 °F 70.0 °F 93% 29.93 in 10.0 mi ESE 8.1 mph - N/A   Scattered Clouds
5:53 AM 71.6 °F 69.8 °F 94% 29.94 in 10.0 mi East 4.6 mph - N/A Rain Light Rain
6:53 AM 72.0 °F 69.1 °F 91% 29.94 in 10.0 mi NE 4.6 mph - 0.00 in   Clear
7:53 AM 71.1 °F 68.0 °F 90% 29.96 in 10.0 mi East 5.8 mph - 0.00 in Rain Light Rain
8:53 AM 71.1 °F 69.1 °F 93% 29.96 in 9.0 mi East 5.8 mph - 0.02 in Rain Light Rain
9:48 AM 71.6 °F 69.8 °F 94% 29.97 in 10.0 mi East 4.6 mph - 0.00 in Rain Light Rain
9:53 AM 71.6 °F 69.8 °F 94% 29.97 in 10.0 mi East 5.8 mph - N/A Rain Light Rain
10:14 AM 71.6 °F 69.8 °F 94% 29.98 in 10.0 mi East 6.9 mph - 0.00 in Rain Light Rain
10:53 AM 73.0 °F 71.1 °F 93% 29.97 in 10.0 mi East 6.9 mph - 0.00 in Rain Light Rain
11:53 AM 73.9 °F 72.0 °F 93% 29.95 in 10.0 mi East 6.9 mph - 0.00 in Rain Light Rain
12:29 PM 75.2 °F 73.4 °F 94% 29.95 in 10.0 mi East 5.8 mph - 0.00 in Rain Light Rain
12:38 PM 75.2 °F 73.4 °F 94% 29.95 in 10.0 mi East 6.9 mph - 0.00 in Rain Light Rain
12:53 PM 75.0 °F 73.0 °F 94% 29.94 in 10.0 mi East 5.8 mph - 0.00 in Rain Light Rain
1:02 PM 75.2 °F 73.4 °F 94% 29.94 in 10.0 mi East 8.1 mph - 0.00 in Rain Light Rain
1:51 PM 75.2 °F 71.6 °F 89% 29.92 in 10.0 mi SE 5.8 mph - N/A Rain Light Rain
1:52 PM 75.0 °F 72.0 °F 90% 29.91 in 10.0 mi SE 5.8 mph - 0.00 in Rain Light Rain
2:53 PM 75.2 °F 71.6 °F 89% 29.90 in 10.0 mi East 6.9 mph - N/A Rain Light Rain
3:53 PM 73.9 °F 72.0 °F 93% 29.87 in 10.0 mi SE 6.9 mph - 0.01 in Rain Light Rain
4:00 PM 73.4 °F 71.6 °F 94% 29.87 in 10.0 mi ESE 6.9 mph - 0.00 in Rain Light Rain
4:13 PM 73.4 °F 71.6 °F 94% 29.87 in 10.0 mi ESE 10.4 mph - 0.00 in Rain Light Rain
4:37 PM 73.4 °F 71.6 °F 94% 29.86 in 10.0 mi ESE 8.1 mph - 0.00 in Rain Light Rain
4:53 PM 73.9 °F 72.0 °F 93% 29.85 in 10.0 mi ESE 5.8 mph - 0.00 in Rain Light Rain
5:40 PM 73.4 °F 71.6 °F 94% 29.88 in 10.0 mi SE 6.9 mph - 0.00 in Rain Light Rain
5:50 PM 73.4 °F 71.6 °F 94% 29.88 in 8.0 mi SSE 5.8 mph - 0.00 in Rain Light Rain
5:53 PM 73.9 °F 71.1 °F 91% 29.88 in 7.0 mi SSE 5.8 mph - 0.01 in Rain Light Rain
6:25 PM 73.4 °F 71.6 °F 94% 29.89 in 10.0 mi SSE 8.1 mph - 0.00 in Rain Light Rain
6:53 PM 72.0 °F 69.1 °F 91% 29.88 in 5.0 mi SSE 5.8 mph - 0.01 in Rain Light Rain
7:00 PM 71.6 °F 69.8 °F 94% 29.89 in 10.0 mi SE 5.8 mph - 0.00 in Rain Light Rain
7:53 PM 73.0 °F 71.1 °F 93% 29.87 in 10.0 mi East 5.8 mph - 0.00 in Rain Light Rain
8:00 PM 73.4 °F 71.6 °F 94% 29.88 in 10.0 mi East 6.9 mph - 0.00 in Rain Light Rain
8:15 PM 73.4 °F 71.6 °F 94% 29.87 in 10.0 mi East 8.1 mph - 0.00 in Rain Light Rain
8:23 PM 73.4 °F 71.6 °F 94% 29.87 in 10.0 mi East 8.1 mph - 0.00 in Rain Light Rain
8:53 PM 72.0 °F 71.1 °F 97% 29.86 in 10.0 mi East 8.1 mph - 0.00 in Rain Light Rain
9:48 PM 71.6 °F 71.6 °F 100% 29.87 in 10.0 mi ENE 3.5 mph - 0.00 in Rain Light Rain
9:53 PM 72.0 °F 71.1 °F 97% 29.87 in 5.0 mi ENE 4.6 mph - 0.00 in Rain Light Rain
10:53 PM 73.0 °F 71.1 °F 93% 29.87 in 10.0 mi East 5.8 mph - 0.00 in   Scattered Clouds
10:56 PM 73.4 °F 71.6 °F 94% 29.87 in 5.0 mi East 5.8 mph - 0.00 in Rain Light Rain
10:58 PM 73.4 °F 71.6 °F 94% 29.87 in 5.0 mi East 6.9 mph - N/A Rain Light Rain
11:53 PM 73.0 °F 71.1 °F 93% 29.86 in 5.0 mi East 6.9 mph - 0.00 in Rain Light Rain
11:58 PM 73.4 °F 71.6 °F 94% 29.87 in 10.0 mi ESE 6.9 mph - 0.00 in Rain Light Rain